Location: ??????
(55.2000°N, 38.3000°E)
Time: 09:22:25
(UTC+00:00)

Cosmos 304 Rocket - Pass Details

Date: 15 November 2025
Orbit: 668 x 677 km, 74.0° (Epoch: 14 December)

Event Time Altitude Azimuth Distance (km) Brightness Sun altitude
Exits shadow 02:42:04 41° 262° (W) 991 4.1 -19.3°
Maximum altitude 02:42:19 41° 253° (WSW) 984 4.1 -19.2°
Drops below altitude 10° 02:46:46 10° 184° (S) 2,112 6.3 -18.6°
Sets 02:49:09 0° 177° (S) 3,023 7.2 -18.3°
